Monarch Pass, CO

1:37 PM MDT on March 30, 2017 (GMT -0600)
Monarch Pass

Weather History for KMYP - November, 2011

Change the Weather History Date:

Sunday, November 20, 2011

  Actual Average (KGUC) Record (KGUC)
Temperature  
Mean Temperature 24 °F -  
Max Temperature 30 °F 36 °F 55 °F (2007)
Min Temperature 17 °F 11 °F -2 °F (2000)
Degree Days  
Heating Degree Days 42    
Moisture  
Dew Point 13 °F    
Average Humidity 66    
Maximum Humidity 86    
Minimum Humidity 40    
Precipitation  
Precipitation 0.00 in - - ()
Sea Level Pressure  
Sea Level Pressure 30.16 in    
Wind  
Wind Speed 29 mph (SW)    
Max Wind Speed 39 mph    
Max Gust Speed 51 mph    
Visibility 10 miles    
Events      
Averages and records for this station are not official NWS values.
T = Trace of Precipitation, MM = Missing Value Source: NWS Daily Summary

Daily Weather History Graph

Daily Weather History Graph

Search for Another Location

Airport or City:

Trip Planner

Search our weather history database for the weather conditions in past years. The results will help you decide how hot, cold, wet, or windy it might be!

Date:

Astronomy

Nov. 20, 2011 Rise Set
Actual Time 6:51 AM MST 4:49 PM MST
Civil Twilight 6:22 AM MST 5:17 PM MST
Nautical Twilight 5:50 AM MST 5:49 PM MST
Astronomical Twilight 5:19 AM MST 6:21 PM MST
Moon 1:26 AM MST (11/20) 1:36 PM MST (11/20)
Length of Visible Light 10h 54m
Length of Day
9h 57m
Waning Crescent, 26% of the Moon is Illuminated
Nov 20
Waning Crescent
Nov 24
New
Dec 2
First Quarter
Dec 10
Full
Dec 17
Last Quarter

Hourly Weather History & Observations

Time (MST) Temp. Windchill Dew Point Humidity Pressure Visibility Wind Dir Wind Speed Gust Speed Precip Events Conditions
12:04 AM 21.2 °F 4.9 °F 14.0 °F 74% 30.10 in 10.0 mi SSW 23.0 mph - N/A   Overcast
12:44 AM 21.2 °F 3.3 °F 14.0 °F 74% 30.10 in 10.0 mi SW 28.8 mph - N/A   Overcast
1:04 AM 21.2 °F 3.3 °F 14.0 °F 74% 30.10 in 10.0 mi SW 28.8 mph - N/A   Overcast
1:24 AM 21.2 °F 3.5 °F 14.0 °F 74% 30.09 in 10.0 mi SW 27.6 mph - N/A   Overcast
1:44 AM 21.2 °F 3.3 °F 14.0 °F 74% 30.09 in 10.0 mi SW 28.8 mph - N/A   Overcast
2:04 AM 21.2 °F 3.0 °F 14.0 °F 74% 30.09 in 10.0 mi SW 29.9 mph - N/A   Scattered Clouds
2:24 AM 19.4 °F 1.8 °F 14.0 °F 80% 30.10 in 10.0 mi SW 25.3 mph - N/A   Clear
2:44 AM 19.4 °F 1.1 °F 14.0 °F 80% 30.09 in 10.0 mi SW 27.6 mph - N/A   Clear
3:04 AM 19.4 °F 1.1 °F 14.0 °F 80% 30.10 in 10.0 mi SW 27.6 mph - N/A   Clear
3:24 AM 19.4 °F 0.8 °F 14.0 °F 80% 30.09 in 10.0 mi SW 28.8 mph - N/A   Clear
3:44 AM 19.4 °F 0.8 °F 14.0 °F 80% 30.09 in 10.0 mi SW 28.8 mph - N/A   Clear
4:04 AM 19.4 °F 1.8 °F 14.0 °F 80% 30.10 in 10.0 mi SW 25.3 mph - N/A   Clear
4:44 AM 17.6 °F -0.6 °F 14.0 °F 86% 30.10 in 10.0 mi SW 25.3 mph - N/A   Clear
5:04 AM 17.6 °F -1.3 °F 14.0 °F 86% 30.10 in 10.0 mi SW 27.6 mph - N/A   Clear
5:24 AM 17.6 °F -1.6 °F 14.0 °F 86% 30.10 in 10.0 mi SW 28.8 mph - N/A   Clear
5:44 AM 19.4 °F -0.0 °F 14.0 °F 80% 30.10 in 10.0 mi SW 32.2 mph - N/A   Clear
6:04 AM 19.4 °F 0.5 °F 14.0 °F 80% 30.11 in 10.0 mi SW 29.9 mph - N/A   Clear
6:24 AM 19.4 °F 0.5 °F 14.0 °F 80% 30.11 in 10.0 mi SW 29.9 mph - N/A   Clear
7:24 AM 19.4 °F -0.3 °F 14.0 °F 80% 30.13 in 10.0 mi SW 33.4 mph 39.1 mph N/A   Clear
7:44 AM 19.4 °F -0.8 °F 14.0 °F 80% 30.13 in 10.0 mi SW 35.7 mph 40.3 mph N/A   Clear
8:04 AM 19.4 °F 0.2 °F 14.0 °F 80% 30.15 in 10.0 mi SW 31.1 mph - N/A   Clear
8:24 AM 19.4 °F 0.5 °F 14.0 °F 80% 30.16 in 10.0 mi SW 29.9 mph - N/A   Clear
8:44 AM 21.2 °F 2.7 °F 14.0 °F 74% 30.16 in 10.0 mi SW 31.1 mph 38.0 mph N/A   Clear
9:44 AM 23.0 °F 4.6 °F 14.0 °F 68% 30.17 in 10.0 mi SW 33.4 mph 41.4 mph N/A   Clear
10:04 AM 23.0 °F 4.4 °F 12.2 °F 63% 30.18 in 10.0 mi WSW 34.5 mph 38.0 mph N/A   Clear
10:24 AM 23.0 °F 4.1 °F 12.2 °F 63% 30.18 in 10.0 mi SW 35.7 mph 42.6 mph N/A   Clear
10:44 AM 24.8 °F 6.0 °F 12.2 °F 59% 30.18 in 10.0 mi WSW 39.1 mph 43.7 mph N/A   Clear
11:04 AM 26.6 °F 8.5 °F 12.2 °F 55% 30.18 in 10.0 mi WSW 39.1 mph 43.7 mph N/A   Clear
11:24 AM 28.4 °F 11.0 °F 12.2 °F 51% 30.18 in 10.0 mi WSW 39.1 mph 48.3 mph N/A   Clear
11:44 AM 28.4 °F 11.6 °F 12.2 °F 51% 30.18 in 10.0 mi WSW 35.7 mph 50.6 mph N/A   Clear
12:24 PM 30.2 °F 14.7 °F 8.6 °F 40% 30.18 in 10.0 mi WSW 32.2 mph 43.7 mph N/A   Clear
12:44 PM 30.2 °F 14.5 °F 10.4 °F 44% 30.18 in 10.0 mi WSW 33.4 mph 43.7 mph N/A   Clear
1:04 PM 28.4 °F 13.0 °F 8.6 °F 43% 30.18 in 10.0 mi WSW 28.8 mph 39.1 mph N/A   Scattered Clouds
1:24 PM 28.4 °F 12.0 °F 10.4 °F 47% 30.19 in 10.0 mi WSW 33.4 mph 41.4 mph N/A   Overcast
1:44 PM 26.6 °F 11.7 °F 12.2 °F 55% 30.20 in 10.0 mi WSW 24.2 mph 38.0 mph N/A   Overcast
2:04 PM 28.4 °F 14.4 °F 12.2 °F 51% 30.20 in 10.0 mi WSW 23.0 mph 32.2 mph N/A   Overcast
2:44 PM 30.2 °F 16.8 °F 10.4 °F 44% 30.20 in 10.0 mi WSW 23.0 mph 35.7 mph N/A   Overcast
3:04 PM 28.4 °F 13.3 °F 10.4 °F 47% 30.20 in 10.0 mi WSW 27.6 mph 35.7 mph N/A   Overcast
3:24 PM 28.4 °F 12.5 °F 10.4 °F 47% 30.20 in 10.0 mi WSW 31.1 mph 38.0 mph N/A   Mostly Cloudy
4:04 PM 26.6 °F 11.1 °F 10.4 °F 51% 30.22 in 10.0 mi WSW 26.5 mph 35.7 mph N/A   Mostly Cloudy
4:24 PM 26.6 °F 11.1 °F 10.4 °F 51% 30.23 in 10.0 mi WSW 26.5 mph 34.5 mph N/A   Scattered Clouds
4:44 PM 26.6 °F 11.1 °F 10.4 °F 51% 30.23 in 10.0 mi WSW 26.5 mph 32.2 mph N/A   Clear
5:24 PM 24.8 °F 8.4 °F 10.4 °F 54% 30.23 in 10.0 mi SW 27.6 mph 34.5 mph N/A   Clear
5:44 PM 23.0 °F 6.3 °F 10.4 °F 59% 30.23 in 10.0 mi WSW 26.5 mph 31.1 mph N/A   Clear
6:04 PM 23.0 °F 6.3 °F 12.2 °F 63% 30.24 in 10.0 mi WSW 26.5 mph 32.2 mph N/A   Clear
6:44 PM 23.0 °F 6.6 °F 12.2 °F 63% 30.25 in 10.0 mi WSW 25.3 mph 32.2 mph N/A   Clear
7:04 PM 21.2 °F 3.5 °F 12.2 °F 68% 30.25 in 10.0 mi WSW 27.6 mph - N/A   Clear
7:24 PM 21.2 °F 3.3 °F 12.2 °F 68% 30.25 in 10.0 mi WSW 28.8 mph - N/A   Clear
8:04 PM 21.2 °F 3.5 °F 12.2 °F 68% 30.27 in 10.0 mi WSW 27.6 mph - N/A   Clear
8:24 PM 21.2 °F 4.5 °F 12.2 °F 68% 30.27 in 10.0 mi WSW 24.2 mph - N/A   Clear
8:44 PM 21.2 °F 4.9 °F 12.2 °F 68% 30.27 in 10.0 mi WSW 23.0 mph - N/A   Clear
9:24 PM 21.2 °F 3.9 °F 12.2 °F 68% 30.27 in 10.0 mi WSW 26.5 mph - N/A   Overcast
9:44 PM 21.2 °F 3.9 °F 12.2 °F 68% 30.27 in 10.0 mi WSW 26.5 mph - N/A   Overcast
10:04 PM 21.2 °F 4.5 °F 12.2 °F 68% 30.28 in 10.0 mi WSW 24.2 mph - N/A   Mostly Cloudy
10:24 PM 21.2 °F 3.5 °F 12.2 °F 68% 30.27 in 10.0 mi WSW 27.6 mph - N/A   Scattered Clouds
10:44 PM 21.2 °F 3.5 °F 14.0 °F 74% 30.27 in 10.0 mi WSW 27.6 mph - N/A   Mostly Cloudy
11:04 PM 19.4 °F 1.8 °F 12.2 °F 74% 30.27 in 10.0 mi SW 25.3 mph - N/A   Mostly Cloudy
11:24 PM 19.4 °F 2.5 °F 14.0 °F 80% 30.27 in 10.0 mi SW 23.0 mph - N/A   Scattered Clouds
11:44 PM 21.2 °F 4.2 °F 14.0 °F 74% 30.27 in 10.0 mi SW 25.3 mph - N/A   Scattered Clouds